PTGAL SBCP-SBVT

Flight info

Callsign PTGAL
Flight time 0h 34m
Altitude 5000
Route MABSI DCT NEVPO
Aircraft BE58/L-SDFGRY/C

Departure

Time 2026-05-06 01:56
Airport Bartolomeu Lisandro Airport (SBCP)

Arrival

Time 2026-05-06 02:31
Airport Eurico de Aguiar Salles International Airport (SBVT)
Time Latitude Longitude Altitude Speed Heading
2026-05-06 01:51 -21.70147 -41.30754 98 ft 0 kts 317°
2026-05-06 01:54 -21.70137 -41.30746 98 ft 7 kts 120°
2026-05-06 01:54 -21.70205 -41.30748 98 ft 15 kts 193°
2026-05-06 01:54 -21.70283 -41.30690 98 ft 7 kts 151°
2026-05-06 01:54 -21.70278 -41.30671 98 ft 0 kts 45°
2026-05-06 01:55 -21.70277 -41.30669 98 ft 6 kts 45°
2026-05-06 01:55 -21.70019 -41.30373 100 ft 95 kts 47°
2026-05-06 01:55 -21.69446 -41.29752 233 ft 132 kts 48°
2026-05-06 01:56 -21.68772 -41.28993 415 ft 154 kts 46°
2026-05-06 01:56 -21.67912 -41.28161 338 ft 175 kts 46°
2026-05-06 01:56 -21.67142 -41.27201 610 ft 165 kts 52°
2026-05-06 01:56 -21.66397 -41.26278 888 ft 163 kts 50°
2026-05-06 01:57 -21.65584 -41.25455 1170 ft 163 kts 37°
2026-05-06 01:57 -21.64648 -41.24770 1495 ft 162 kts 37°
2026-05-06 01:57 -21.63721 -41.24079 1794 ft 163 kts 38°
2026-05-06 01:57 -21.62778 -41.23374 2058 ft 166 kts 37°
2026-05-06 01:58 -21.61822 -41.22659 2304 ft 168 kts 37°
2026-05-06 01:58 -21.60855 -41.21937 2560 ft 169 kts 36°
2026-05-06 01:58 -21.59892 -41.21219 2828 ft 168 kts 36°
2026-05-06 01:58 -21.58931 -41.20501 3093 ft 169 kts 35°
2026-05-06 01:59 -21.57960 -41.19777 3360 ft 171 kts 35°
2026-05-06 01:59 -21.56974 -41.19041 3621 ft 174 kts 35°
2026-05-06 01:59 -21.55972 -41.18293 3883 ft 177 kts 36°
2026-05-06 01:59 -21.54944 -41.17526 4104 ft 182 kts 36°
2026-05-06 02:00 -21.53893 -41.16742 4328 ft 186 kts 36°
2026-05-06 02:00 -21.52824 -41.15944 4552 ft 188 kts 37°
2026-05-06 02:00 -21.51742 -41.15139 4775 ft 190 kts 37°
2026-05-06 02:00 -21.50666 -41.14336 4997 ft 191 kts 37°
2026-05-06 02:01 -21.49569 -41.13518 5181 ft 195 kts 37°
2026-05-06 02:01 -21.48441 -41.12676 5183 ft 197 kts 36°
2026-05-06 02:01 -21.47319 -41.11843 5187 ft 195 kts 37°
2026-05-06 02:01 -21.46203 -41.11012 5185 ft 197 kts 37°
2026-05-06 02:02 -21.45070 -41.10166 5186 ft 197 kts 36°
2026-05-06 02:02 -21.43942 -41.09326 5189 ft 197 kts 36°
2026-05-06 02:02 -21.42816 -41.08488 5188 ft 197 kts 37°
2026-05-06 02:02 -21.41692 -41.07653 5186 ft 196 kts 37°
2026-05-06 02:03 -21.40568 -41.06815 5188 ft 197 kts 37°
2026-05-06 02:03 -21.39439 -41.05974 5191 ft 197 kts 37°
2026-05-06 02:03 -21.38328 -41.05148 5190 ft 197 kts 37°
2026-05-06 02:03 -21.37200 -41.04310 5192 ft 197 kts 37°
2026-05-06 02:04 -21.36072 -41.03471 5192 ft 198 kts 37°
2026-05-06 02:04 -21.34946 -41.02633 5192 ft 197 kts 36°
2026-05-06 02:04 -21.33821 -41.01797 5190 ft 197 kts 36°
2026-05-06 02:04 -21.32696 -41.00961 5190 ft 197 kts 37°
2026-05-06 02:05 -21.31565 -41.00121 5189 ft 198 kts 37°
2026-05-06 02:05 -21.30435 -40.99282 5190 ft 197 kts 36°
2026-05-06 02:05 -21.29304 -40.98442 5187 ft 198 kts 37°
2026-05-06 02:05 -21.28172 -40.97600 5191 ft 198 kts 37°
2026-05-06 02:06 -21.27039 -40.96760 5192 ft 198 kts 37°
2026-05-06 02:06 -21.25906 -40.95918 5193 ft 198 kts 36°
2026-05-06 02:06 -21.24772 -40.95076 5193 ft 198 kts 36°
2026-05-06 02:06 -21.23653 -40.94247 5193 ft 197 kts 37°
2026-05-06 02:07 -21.22528 -40.93412 5192 ft 196 kts 37°
2026-05-06 02:07 -21.21406 -40.92579 5190 ft 196 kts 36°
2026-05-06 02:07 -21.20286 -40.91749 5198 ft 196 kts 36°
2026-05-06 02:07 -21.19161 -40.90915 5193 ft 197 kts 36°
2026-05-06 02:08 -21.18036 -40.90080 5196 ft 197 kts 36°
2026-05-06 02:08 -21.16913 -40.89248 5195 ft 196 kts 36°
2026-05-06 02:08 -21.15793 -40.88419 5194 ft 195 kts 36°
2026-05-06 02:08 -21.14677 -40.87592 5194 ft 195 kts 37°
2026-05-06 02:09 -21.13562 -40.86765 5194 ft 195 kts 36°
2026-05-06 02:09 -21.12444 -40.85938 5195 ft 195 kts 36°
2026-05-06 02:09 -21.11325 -40.85108 5192 ft 196 kts 36°
2026-05-06 02:09 -21.10202 -40.84277 5192 ft 196 kts 36°
2026-05-06 02:10 -21.09076 -40.83443 5190 ft 196 kts 36°
2026-05-06 02:10 -21.07955 -40.82614 5193 ft 195 kts 36°
2026-05-06 02:10 -21.06837 -40.81787 5193 ft 195 kts 36°
2026-05-06 02:10 -21.05718 -40.80959 5191 ft 196 kts 36°
2026-05-06 02:11 -21.04600 -40.80132 5189 ft 195 kts 36°
2026-05-06 02:11 -21.03481 -40.79304 5194 ft 195 kts 36°
2026-05-06 02:11 -21.02362 -40.78477 5192 ft 195 kts 36°
2026-05-06 02:11 -21.01243 -40.77650 5191 ft 195 kts 37°
2026-05-06 02:12 -21.00129 -40.76826 5192 ft 195 kts 36°
2026-05-06 02:12 -20.99010 -40.75999 5195 ft 195 kts 36°
2026-05-06 02:12 -20.97892 -40.75173 5193 ft 195 kts 36°
2026-05-06 02:12 -20.96787 -40.74357 5195 ft 196 kts 36°
2026-05-06 02:13 -20.95662 -40.73526 5196 ft 196 kts 36°
2026-05-06 02:13 -20.94540 -40.72698 5199 ft 195 kts 35°
2026-05-06 02:13 -20.93422 -40.71872 5195 ft 195 kts 35°
2026-05-06 02:13 -20.92306 -40.71048 5195 ft 195 kts 36°
2026-05-06 02:14 -20.91188 -40.70223 5197 ft 195 kts 35°
2026-05-06 02:14 -20.90067 -40.69395 5198 ft 195 kts 36°
2026-05-06 02:14 -20.88947 -40.68569 5197 ft 196 kts 36°
2026-05-06 02:14 -20.87823 -40.67741 5196 ft 196 kts 36°
2026-05-06 02:15 -20.86708 -40.66918 5198 ft 197 kts 35°
2026-05-06 02:15 -20.85580 -40.66086 5195 ft 197 kts 35°
2026-05-06 02:15 -20.84452 -40.65255 5199 ft 197 kts 36°
2026-05-06 02:15 -20.83326 -40.64425 5200 ft 197 kts 36°
2026-05-06 02:16 -20.82199 -40.63594 5194 ft 197 kts 35°
2026-05-06 02:16 -20.81070 -40.62762 5196 ft 196 kts 35°
2026-05-06 02:16 -20.79947 -40.61935 5196 ft 196 kts 36°
2026-05-06 02:16 -20.78835 -40.61116 5196 ft 196 kts 36°
2026-05-06 02:17 -20.77711 -40.60288 5201 ft 197 kts 35°
2026-05-06 02:17 -20.76581 -40.59456 5201 ft 197 kts 36°
2026-05-06 02:17 -20.75451 -40.58624 5199 ft 197 kts 36°
2026-05-06 02:17 -20.74321 -40.57793 5206 ft 197 kts 36°
2026-05-06 02:18 -20.73191 -40.56961 5205 ft 197 kts 36°
2026-05-06 02:18 -20.72063 -40.56131 5198 ft 197 kts 35°
2026-05-06 02:18 -20.70936 -40.55301 5201 ft 196 kts 35°
2026-05-06 02:18 -20.69811 -40.54475 5200 ft 196 kts 36°
2026-05-06 02:19 -20.68686 -40.53647 5198 ft 196 kts 36°
2026-05-06 02:19 -20.67575 -40.52831 5200 ft 197 kts 36°
2026-05-06 02:19 -20.66449 -40.52002 5200 ft 196 kts 35°
2026-05-06 02:19 -20.65322 -40.51175 5200 ft 197 kts 36°
2026-05-06 02:20 -20.63068 -40.49519 5199 ft 197 kts 35°
2026-05-06 02:20 -20.61939 -40.48689 5198 ft 197 kts 36°
2026-05-06 02:20 -20.60807 -40.47858 5200 ft 197 kts 36°
2026-05-06 02:21 -20.59675 -40.47027 5195 ft 197 kts 35°
2026-05-06 02:21 -20.58549 -40.46200 5197 ft 196 kts 35°
2026-05-06 02:21 -20.57429 -40.45378 5198 ft 195 kts 35°
2026-05-06 02:21 -20.56314 -40.44560 5201 ft 194 kts 36°
2026-05-06 02:22 -20.55206 -40.43747 5201 ft 193 kts 36°
2026-05-06 02:22 -20.54100 -40.42935 5199 ft 192 kts 36°
2026-05-06 02:22 -20.52997 -40.42127 5197 ft 192 kts 35°
2026-05-06 02:22 -20.51896 -40.41319 5198 ft 192 kts 35°
2026-05-06 02:23 -20.50809 -40.40522 5196 ft 192 kts 36°
2026-05-06 02:23 -20.49709 -40.39716 5198 ft 192 kts 35°
2026-05-06 02:23 -20.48615 -40.38914 5197 ft 192 kts 35°
2026-05-06 02:23 -20.47513 -40.38107 5196 ft 192 kts 35°
2026-05-06 02:24 -20.46419 -40.37305 5190 ft 189 kts 36°
2026-05-06 02:24 -20.45362 -40.36500 5186 ft 185 kts 42°
2026-05-06 02:24 -20.44605 -40.35395 5020 ft 189 kts 66°
2026-05-06 02:24 -20.44296 -40.34032 4637 ft 189 kts 83°
2026-05-06 02:25 -20.44129 -40.32647 4249 ft 185 kts 82°
2026-05-06 02:25 -20.43958 -40.31341 3869 ft 172 kts 82°
2026-05-06 02:25 -20.43795 -40.30108 3480 ft 165 kts 82°
2026-05-06 02:25 -20.43637 -40.28911 3080 ft 161 kts 82°
2026-05-06 02:26 -20.43480 -40.27733 2686 ft 159 kts 81°
2026-05-06 02:26 -20.43054 -40.26690 2466 ft 147 kts 54°
2026-05-06 02:26 -20.42308 -40.26000 2289 ft 143 kts 30°
2026-05-06 02:26 -20.41346 -40.25708 2059 ft 146 kts
2026-05-06 02:27 -20.40329 -40.25820 1840 ft 148 kts 353°
2026-05-06 02:27 -20.39317 -40.25968 1768 ft 144 kts 353°
2026-05-06 02:27 -20.38334 -40.26112 1741 ft 141 kts 355°
2026-05-06 02:27 -20.37369 -40.26256 1740 ft 139 kts 354°
2026-05-06 02:28 -20.36418 -40.26395 1733 ft 139 kts 354°
2026-05-06 02:28 -20.35439 -40.26541 1736 ft 146 kts 354°
2026-05-06 02:28 -20.34427 -40.26690 1630 ft 143 kts 354°
2026-05-06 02:28 -20.33468 -40.26831 1442 ft 137 kts 354°
2026-05-06 02:29 -20.32530 -40.26969 1230 ft 137 kts 354°
2026-05-06 02:29 -20.31574 -40.27111 1023 ft 140 kts 353°
2026-05-06 02:29 -20.30594 -40.27254 804 ft 143 kts 353°
2026-05-06 02:29 -20.29611 -40.27401 590 ft 141 kts 352°
2026-05-06 02:30 -20.28650 -40.27544 434 ft 140 kts 352°
2026-05-06 02:30 -20.27691 -40.27701 272 ft 136 kts 354°
2026-05-06 02:30 -20.26763 -40.27826 94 ft 133 kts 352°
2026-05-06 02:30 -20.25890 -40.27952 17 ft 117 kts 354°
2026-05-06 02:31 -20.25214 -40.28041 14 ft 69 kts 352°
2026-05-06 02:31 -20.24983 -40.28092 12 ft 10 kts 305°
2026-05-06 02:31 -20.24998 -40.28155 13 ft 12 kts 208°
2026-05-06 02:31 -20.25102 -40.28218 13 ft 22 kts 212°
2026-05-06 02:32 -20.25258 -40.28329 12 ft 31 kts 216°
2026-05-06 02:32 -20.25462 -40.28464 11 ft 38 kts 210°
2026-05-06 02:32 -20.25697 -40.28619 10 ft 26 kts 215°
2026-05-06 02:32 -20.25729 -40.28730 11 ft 19 kts 303°
2026-05-06 02:33 -20.25733 -40.28823 12 ft 17 kts 217°
2026-05-06 02:33 -20.25805 -40.28871 12 ft 20 kts 213°
2026-05-06 02:33 -20.25825 -40.28951 12 ft 0 kts 302°